Home   Weather   Basse-Terre   Past weeks
Flag for Guadeloupe

Past Weather in Basse-Terre, Guadeloupe — Yesterday and Last 2 Weeks

Now
77 °F

Warm.


Feels Like: 78 °F
Forecast: 83 / 76 °F
Wind: 6 mph from East

Location: Le Raizet - Guadeloupe

Current Time: Jul 17, 2019 at 2:50:51 am

Latest Report: Jul 17, 2019 at 2:00 am


Visibility: N/A

Pressure: 30.01 "Hg

Humidity: 89%

Dew Point: 73 °F

Location of Basse-TerreLocation

Past Weather in Basse-Terre — Graph

°F

Basse-Terre Temperature Yesterday

Maximum temperature yesterday: 88 °F (at 10:00 am)
Minimum temperature yesterday: 73 °F (at 4:00 am)
Average temperature yesterday: 82 °F

High & Low Weather Summary for the Past Weeks

 TemperatureHumidityPressure
High90 °F (Jul 4, 11:30 am)94% (Jul 2, 3:30 am)30.12 "Hg (Jul 2, 3:30 am)
Low73 °F (Jul 3, 1:30 am)49% (Jul 12, 2:30 pm)29.92 "Hg (Jul 11, 5:00 pm)
Average82 °F76%30.01 "Hg
* Reported Jul 2 1:00 am — Jul 17 1:30 am, Basse-Terre. Weather by CustomWeather, © 2019

Note: Actual official high and low records may vary slightly from our data, if they occured in-between our weather recording intervals... More about our weather records

Advertising

Basse-Terre Weather History for the Previous 24 Hours

Scroll right to see more
 ConditionsComfort  
Time TempWeatherWind HumidityBarometerVisibility
1:30 am
Wed, Jul 17
77 °FPassing clouds.3 mph89%30.01 "HgN/A
1:00 am77 °FWarm.No wind89%30.01 "HgN/A
12:30 am77 °FWarm.1 mph89%30.04 "HgN/A
12:00 am77 °FWarm.No wind89%30.04 "HgN/A
11:30 pm
Tue, Jul 16
77 °FWarm.2 mph89%30.04 "HgN/A
11:00 pm77 °FClear.3 mph89%30.04 "Hg10 mi
10:30 pm79 °FWarm.5 mph84%30.04 "HgN/A
10:00 pm77 °FPassing clouds.3 mph89%30.04 "HgN/A
9:30 pm79 °FWarm.6 mph84%30.04 "HgN/A
9:00 pm79 °FPassing clouds.8 mph84%30.04 "HgN/A
8:30 pm81 °FPassing clouds.5 mph79%30.01 "HgN/A
8:00 pm81 °FPassing clouds.6 mph79%30.01 "HgN/A
7:30 pm81 °FPassing clouds.7 mph79%30.01 "HgN/A
7:00 pm82 °FClear.9 mph70%30.01 "Hg10 mi
6:30 pm82 °FPassing clouds.12 mph70%30.01 "HgN/A
6:00 pm84 °FPassing clouds.14 mph66%29.98 "HgN/A
5:30 pm84 °FScattered clouds.15 mph66%29.98 "HgN/A
5:00 pm86 °FPassing clouds.17 mph66%29.98 "HgN/A
4:30 pm86 °FPartly sunny.15 mph62%29.98 "HgN/A
4:00 pm88 °FPassing clouds.13 mph59%29.98 "HgN/A
3:30 pm88 °FPassing clouds.16 mph62%29.98 "HgN/A
3:00 pm88 °FPassing clouds.16 mph59%29.98 "HgN/A
2:30 pm88 °FScattered clouds.15 mph59%29.98 "HgN/A
2:00 pm88 °FScattered clouds.14 mph59%30.01 "HgN/A
1:30 pm88 °FPassing clouds.15 mph62%30.01 "HgN/A
1:00 pm88 °FScattered clouds.14 mph59%30.01 "HgN/A
12:30 pm88 °FPartly sunny.14 mph59%30.04 "HgN/A
12:00 pm86 °FPartly sunny.14 mph62%30.04 "HgN/A
11:30 am88 °FPartly sunny.14 mph59%30.04 "HgN/A
11:00 am88 °FPartly sunny.15 mph59%30.04 "HgN/A
10:30 am88 °FBroken clouds.13 mph62%30.04 "HgN/A
10:00 am88 °FScattered clouds.13 mph59%30.04 "HgN/A
9:30 am86 °FPartly sunny.14 mph66%30.04 "HgN/A
9:00 am86 °FPartly sunny.13 mph66%30.04 "HgN/A
8:30 am84 °FPassing clouds.14 mph70%30.04 "HgN/A
8:00 am84 °FPassing clouds.9 mph70%30.04 "HgN/A
7:30 am82 °FSunny.8 mph74%30.04 "Hg10 mi
7:00 am81 °FSunny.1 mph84%30.04 "Hg10 mi
6:30 am75 °FPassing clouds.1 mph94%30.04 "HgN/A
6:00 am75 °FPassing clouds.1 mph94%30.01 "HgN/A
5:30 am73 °FPassing clouds.2 mph94%30.01 "HgN/A
5:00 am73 °FPassing clouds.No wind94%30.01 "HgN/A
4:30 am73 °FClear.1 mph94%30.01 "Hg10 mi
4:00 am73 °FClear.2 mph94%30.01 "Hg10 mi
3:30 am75 °FClear.No wind89%30.01 "Hg10 mi
3:00 am75 °FPassing clouds.2 mph89%30.01 "HgN/A
2:30 am75 °FClear.2 mph89%30.01 "Hg10 mi
2:00 am77 °FPassing clouds.2 mph83%30.01 "HgN/A
Weather by CustomWeather, © 2019

See weather overview